User: anonymous   Login
Location: Peebles
(55.6412°N, 3.1714°W)
Time: 16:53:59
(UTC+01:00)
Language:

CHARLIE (NANOAVIONICS) - Orbit

View from above orbital plane
View from above orbital plane
View from above satellite
View from above satellite

Ground track
Ground track

The orbit data is extracted from the following two-line orbital elements,

1 47440U 21006AD  22183.64405097  .00004711  00000-0  24635-3 0  9995
2 47440  97.4364 242.3677 0010655 216.8933 143.1568 15.16293800 79586
Epoch (UTC): 02 July 2022 15:27:26
Eccentricity: 0.0010655
inclination: 97.4364°
perigee height: 510 km
apogee height: 524 km
right ascension of ascending node: 242.3677°
argument of perigee: 216.8933°
revolutions per day: 15.16293800
mean anomaly at epoch: 143.1568°
orbit number at epoch: 7958

The dashed part of the orbit path shows where the satellite is in the earth's shadow,  

DLR